[[{"header":{"parameterUnit":"m.s-1","parameterCategory":1,"la1":30.2991,"la2":30.254,"lo1":-89.0895,"lo2":-89.0444,"dy":0.0017,"dx":0.0017,"nx":28,"ny":28,"refTime":"2025-05-21T09:00:00:Z","depth":0,"parameterNumber":2,"parameterNumberName":"U-component_of_WINDS"},"data":[0,0,0,0,0,0,0,0,0,0,0,0,0,0,0,0,0,0,0,0,0,0,0,0,0,0,0,0,0,0,0,0,0,0,0,0,0,0,0,0,0,0,0,0,0,0,0,0,0,0,0,0,0,0,0,0,0,0,0.1194,0.1194,0,0.1172,0.1171,0.1171,0.1137,0.1136,0.1135,0.1135,0.1112,0.1111,0.1111,0,0,0,0,0,0,0,0,0,0,0,0,0,0.1208,0.1208,0.1195,0.1194,0.1194,0.1172,0.1171,0.1171,0.1137,0.1136,0.1135,0.1134,0.1112,0.1112,0.1111,0,0,0,0,0,0,0,0,0,0,0,0,0,0.1196,0.1208,0.1195,0.1174,0.1172,0.1172,0.1171,0.1171,0.1137,0.1136,0.1135,0.1134,0.1112,0.1112,0.1111,0.1129,0,0,0.1111,0.1111,0,0,0,0,0,0,0,0,0.1196,0.1195,0.1177,0.1176,0.1173,0.1156,0.1168,0.1157,0.1137,0.115,0.1135,0.1134,0.1127,0.1126,0.1123,0.1128,0.1127,0.1111,0.1111,0.1111,0.1111,0,0,0,0,0,0,0,0.1197,0.1196,0.1185,0.1177,0.1175,0.1166,0.1163,0.1165,0.1144,0.1149,0.1146,0.1144,0.1126,0.1124,0.1123,0.1127,0.1111,0.1111,0.1111,0.1111,0.1144,0.1145,0,0,0,0,0,0,0.1201,0.1197,0.1186,0.1185,0.1183,0.1167,0.1163,0.1162,0.1144,0.114,0.1145,0.1143,0.1124,0.1123,0.1122,0.1141,0.1111,0.1111,0.1111,0.1143,0.1145,0.1146,0,0,0,0,0,0,0.1202,0.1201,0.1187,0.119,0.1188,0.1167,0.1167,0.1162,0.116,0.1141,0.1137,0.1147,0.1123,0.1122,0.1127,0.114,0.1111,0.1111,0.1142,0.1144,0.1145,0.118,0,0,0,0,0,0,0.1202,0.1201,0.1208,0.1191,0.1188,0.1194,0.1167,0.1163,0.116,0.1157,0.1141,0.1138,0.1123,0.1128,0.1127,0.1139,0.1111,0.1141,0.1143,0.1145,0.1178,0.1183,0.1187,0,0,0,0,0,0.1203,0.1219,0.1208,0.1207,0.1196,0.1194,0.1193,0.1174,0.1161,0.1168,0.1155,0.1138,0.1138,0.1129,0.1128,0.114,0.114,0.1142,0.1145,0.1176,0.1182,0.1186,0,0,0,0,0,0,0.1238,0.1216,0.1204,0.1215,0.1207,0.1188,0.1196,0.1181,0.1177,0.1174,0.1151,0.1148,0.1157,0.1149,0.1138,0.1156,0.1137,0.1139,0.1161,0.1166,0.117,0.1172,0.1111,0,0,0,0,0,0.1247,0.1248,0.1228,0.124,0.1236,0.1217,0.1216,0.1202,0.1193,0.1189,0.1177,0.1169,0.1167,0.1166,0.1163,0.1176,0.1172,0.1184,0.1188,0.1192,0.1194,0.12,0.1205,0.1152,0.1152,0.1152,0,0,0.1265,0.1254,0.1255,0.1246,0.1238,0.124,0.1214,0.1217,0.1217,0.119,0.1194,0.1185,0.1174,0.1184,0.1187,0.1177,0.1208,0.1195,0.1198,0.1198,0.1203,0.1208,0.1212,0.1154,0.1154,0.1153,0,0,0.13,0.1291,0.1299,0.1292,0.128,0.1267,0.1269,0.1253,0.1246,0.125,0.1229,0.1229,0.1226,0.1219,0.1215,0.1246,0.1231,0.1246,0.1269,0.1275,0.128,0.1283,0.1294,0.1298,0.1248,0.1248,0.1248,0,0.1325,0.1326,0.1305,0.1309,0.1306,0.128,0.1288,0.1282,0.127,0.1268,0.1257,0.1252,0.1243,0.1251,0.1258,0.1256,0.1257,0.1248,0.1281,0.1284,0.1287,0.1297,0.1301,0.125,0.125,0.125,0.125,0,0.1356,0.1357,0.1365,0.1354,0.1351,0.1357,0.1338,0.1338,0.1324,0.1313,0.1317,0.1305,0.1299,0.13,0.1287,0.1305,0.1299,0.1285,0.1265,0.1294,0.1303,0.1307,0.1253,0.1252,0.1252,0.1251,0,0,0.1413,0.139,0.1393,0.1388,0.1372,0.1373,0.1377,0.1371,0.1371,0.1364,0.1367,0.1365,0.1351,0.1347,0.1332,0.1338,0.1363,0.1323,0.1322,0.1331,0.1382,0.1393,0.1398,0.1352,0.1353,0.1354,0.1383,0,0.1444,0.145,0.1432,0.1443,0.1444,0.142,0.1423,0.1415,0.1404,0.1402,0.139,0.1389,0.1371,0.1368,0.1372,0.1359,0.1373,0.1357,0.1355,0.1355,0.1359,0.1403,0.1415,0.1443,0.1386,0.1387,0.1387,0,0.1481,0.1476,0.1487,0.1471,0.147,0.1474,0.1467,0.1466,0.1455,0.1447,0.1442,0.1425,0.1428,0.1409,0.1413,0.1402,0.14,0.1394,0.1395,0.1394,0.1373,0.1403,0.1452,0.1456,0.1393,0.1392,0.1392,0,0.1521,0.1516,0.1522,0.1518,0.1499,0.1503,0.1495,0.1483,0.1481,0.1474,0.1472,0.1467,0.1464,0.1459,0.1442,0.143,0.1447,0.1427,0.144,0.1441,0.1445,0.1445,0.1494,0.1444,0.1444,0.1444,0.1444,0,0.1558,0.1566,0.154,0.1543,0.1551,0.153,0.1538,0.1528,0.1518,0.1519,0.1498,0.1499,0.1476,0.1475,0.1461,0.1466,0.1464,0.1458,0.1454,0.146,0.146,0.1458,0.1456,0.1445,0.1445,0.1445,0.1444,0,0.1604,0.1587,0.1591,0.1573,0.1569,0.1576,0.156,0.1562,0.155,0.1551,0.1551,0.1531,0.1528,0.151,0.1504,0.1494,0.1504,0.1497,0.1508,0.1506,0.152,0.1519,0.1569,0.1574,0.1521,0.1522,0.1522,0,0.1629,0.1634,0.1616,0.1616,0.1609,0.1608,0.1605,0.1584,0.1582,0.157,0.1574,0.157,0.1565,0.1562,0.1547,0.1542,0.1534,0.1552,0.1533,0.1539,0.1534,0.1534,0.1535,0.1556,0.1557,0.1557,0.1558,0,0.1674,0.1665,0.1662,0.1656,0.1653,0.1647,0.164,0.1641,0.1618,0.1616,0.1614,0.161,0.1603,0.1599,0.1591,0.1583,0.1567,0.1564,0.1567,0.1573,0.1579,0.1576,0.1519,0.1563,0.1562,0.1562,0.1562,0.1562,0.171,0.1713,0.1701,0.1699,0.1691,0.1685,0.1686,0.1674,0.1671,0.1664,0.1652,0.165,0.1639,0.1627,0.162,0.1618,0.1609,0.1613,0.1614,0.1615,0.1618,0.1579,0.1617,0.1617,0.1617,0.1616,0.1616,0,0.1754,0.1745,0.1743,0.1733,0.1731,0.1716,0.1707,0.1706,0.1705,0.1696,0.1692,0.1689,0.1684,0.1669,0.1663,0.1665,0.1657,0.1664,0.1664,0.1662,0.1627,0.1625,0.167,0.167,0.167,0.167,0.167,0.167,0.1777,0.1782,0.1772,0.1773,0.1763,0.1762,0.1758,0.1752,0.1745,0.1742,0.1739,0.1729,0.1717,0.171,0.1705,0.1701,0.17,0.1709,0.1702,0.167,0.1665,0.166,0.1658,0.1709,0.1709,0.1737,0.1737,0.1737]},{"header":{"parameterUnit":"m.s-1","parameterCategory":1,"la1":30.2991,"la2":30.254,"lo1":-89.0895,"lo2":-89.0444,"dy":0.0017,"dx":0.0017,"nx":28,"ny":28,"refTime":"2025-05-21T09:00:00:Z","depth":0,"parameterNumber":3,"parameterNumberName":"V-component_of_WINDS"},"data":[0,0,0,0,0,0,0,0,0,0,0,0,0,0,0,0,0,0,0,0,0,0,0,0,0,0,0,0,0,0,0,0,0,0,0,0,0,0,0,0,0,0,0,0,0,0,0,0,0,0,0,0,0,0,0,0,0,0,3.6593,3.6594,0,3.6638,3.6638,3.6639,3.6612,3.661,3.6609,3.6608,3.6649,3.6651,3.6654,0,0,0,0,0,0,0,0,0,0,0,0,0,3.648,3.6482,3.6593,3.6594,3.6594,3.6638,3.6638,3.6639,3.6612,3.661,3.6609,3.6607,3.6648,3.6651,3.6654,0,0,0,0,0,0,0,0,0,0,0,0,0,3.6527,3.6483,3.6593,3.6586,3.6586,3.6638,3.6638,3.6639,3.6612,3.661,3.6608,3.6607,3.6647,3.6651,3.6654,3.6714,0,0,3.6665,3.6666,0,0,0,0,0,0,0,0,3.6524,3.6531,3.6587,3.6587,3.6587,3.6617,3.6613,3.6664,3.6613,3.6602,3.6608,3.6606,3.664,3.6644,3.6656,3.6716,3.6717,3.6665,3.6667,3.6669,3.667,0,0,0,0,0,0,0,3.6521,3.6529,3.6611,3.6587,3.6587,3.6579,3.6584,3.6623,3.6631,3.6603,3.6601,3.6607,3.6639,3.6653,3.6657,3.6718,3.6665,3.6668,3.667,3.6671,3.6827,3.6829,0,0,0,0,0,0,3.6519,3.6526,3.6609,3.6612,3.655,3.6583,3.6588,3.6609,3.6631,3.6632,3.6608,3.6605,3.6648,3.6653,3.6658,3.6728,3.6669,3.6672,3.6674,3.6825,3.6828,3.683,0,0,0,0,0,0,3.6517,3.6527,3.6607,3.6569,3.6578,3.6587,3.6611,3.6611,3.6625,3.6635,3.6636,3.6621,3.6647,3.6653,3.67,3.6729,3.6673,3.6676,3.6823,3.6826,3.6829,3.6869,0,0,0,0,0,0,3.6513,3.6526,3.655,3.657,3.6581,3.665,3.6613,3.6613,3.6631,3.6628,3.6647,3.6648,3.6646,3.6695,3.6704,3.6733,3.6679,3.682,3.6824,3.6828,3.6865,3.6874,3.688,0,0,0,0,0,3.651,3.6559,3.6551,3.6561,3.6611,3.6652,3.6658,3.6655,3.6634,3.6657,3.6663,3.6648,3.6725,3.67,3.6709,3.674,3.6818,3.6823,3.6827,3.6862,3.6872,3.688,0,0,0,0,0,0,3.6541,3.6561,3.6553,3.6611,3.663,3.6647,3.6676,3.6666,3.6691,3.6686,3.668,3.6685,3.6734,3.6742,3.6714,3.6798,3.6768,3.6775,3.6791,3.6801,3.6808,3.6804,3.6682,0,0,0,0,0,3.6555,3.6588,3.6603,3.6652,3.6663,3.6668,3.6686,3.6682,3.6701,3.6709,3.6719,3.6736,3.6765,3.6783,3.681,3.6867,3.687,3.6893,3.69,3.6906,3.6912,3.6941,3.6951,3.6845,3.6845,3.6845,0,0,3.6583,3.6598,3.6619,3.6659,3.6673,3.6706,3.6675,3.6711,3.6735,3.6714,3.6758,3.6766,3.6786,3.6838,3.6861,3.6846,3.6942,3.6912,3.6917,3.6919,3.6947,3.6957,3.6966,3.6848,3.6848,3.6847,0,0,3.6651,3.6667,3.6709,3.6724,3.6747,3.6751,3.6761,3.678,3.6785,3.683,3.6815,3.6842,3.6891,3.6905,3.6919,3.6992,3.6978,3.7001,3.704,3.7068,3.7077,3.7084,3.7109,3.7118,3.7007,3.7007,3.7007,0,3.6683,3.6733,3.6731,3.6769,3.6786,3.677,3.6812,3.6826,3.6856,3.6867,3.6851,3.6912,3.6924,3.6978,3.6996,3.7008,3.7018,3.6998,3.7076,3.7083,3.709,3.7113,3.7123,3.7009,3.7009,3.7009,3.7009,0,3.677,3.6805,3.6836,3.6867,3.6888,3.6927,3.693,3.6951,3.6945,3.695,3.6995,3.7009,3.7038,3.7051,3.7045,3.7104,3.7094,3.7077,3.7046,3.7103,3.7124,3.7134,3.7013,3.7012,3.7011,3.7011,0,0,3.6859,3.6888,3.69,3.6913,3.6937,3.6963,3.7001,3.703,3.7048,3.7069,3.7099,3.7141,3.7125,3.7141,3.7137,3.7162,3.7218,3.7142,3.7142,3.7154,3.7282,3.7293,3.7304,3.7209,3.7211,3.7212,3.7279,0,3.6927,3.6995,3.6995,3.7056,3.7088,3.7073,3.7106,3.7123,3.7128,3.7154,3.7159,3.7189,3.7167,3.7176,3.72,3.7206,3.7243,3.7201,3.7236,3.7237,3.723,3.7316,3.7328,3.7391,3.7288,3.729,3.7291,0,3.7016,3.7042,3.7107,3.7126,3.7139,3.7169,3.7195,3.7221,3.724,3.7241,3.7259,3.7251,3.7288,3.7257,3.7306,3.7278,3.7292,3.7297,3.7299,3.7301,3.7266,3.7318,3.7411,3.742,3.7304,3.7303,3.7302,0,3.7072,3.7123,3.7168,3.718,3.7204,3.7225,3.7235,3.7252,3.727,3.7292,3.7303,3.733,3.7344,3.7363,3.7362,3.734,3.7412,3.7381,3.7413,3.7413,3.7427,3.7426,3.7522,3.7439,3.7439,3.7439,3.7438,0,3.7148,3.7189,3.7194,3.7221,3.7266,3.7264,3.7307,3.7315,3.7331,3.7358,3.7347,3.7373,3.7371,3.7396,3.7395,3.7436,3.7442,3.7444,3.7442,3.7444,3.7444,3.7452,3.7447,3.7441,3.744,3.744,3.744,0,3.7218,3.7223,3.7272,3.729,3.7296,3.7327,3.7342,3.7368,3.7372,3.7408,3.7416,3.7422,3.7452,3.7453,3.7487,3.7486,3.7535,3.7529,3.7529,3.7527,3.7558,3.7555,3.7661,3.7675,3.7584,3.7585,3.7586,0,3.7266,3.7296,3.7319,3.7337,3.7349,3.7379,3.7397,3.7396,3.7415,3.7439,3.7461,3.749,3.7513,3.7561,3.7567,3.7593,3.7587,3.7623,3.7591,3.7591,3.7586,3.7584,3.7586,3.7629,3.763,3.7631,3.7631,0,3.7349,3.735,3.7377,3.7405,3.7428,3.7449,3.7469,3.7485,3.7486,3.7508,3.7539,3.7557,3.7592,3.762,3.7645,3.7653,3.7642,3.7642,3.765,3.7651,3.7649,3.7649,3.7544,3.7639,3.7638,3.7637,3.7637,3.7637,3.7408,3.7434,3.7454,3.7484,3.75,3.7519,3.7543,3.7551,3.7577,3.7607,3.7604,3.7638,3.7655,3.7687,3.7698,3.7724,3.7711,3.7724,3.7726,3.7729,3.7732,3.7646,3.7728,3.7728,3.7728,3.7728,3.7728,0,3.7489,3.7501,3.753,3.7559,3.7582,3.7571,3.7593,3.7613,3.7643,3.7661,3.7684,3.7718,3.7746,3.7755,3.7781,3.7799,3.7795,3.7806,3.7804,3.7806,3.7742,3.7732,3.7809,3.7809,3.7809,3.7809,3.7809,3.7809,3.7534,3.7578,3.7581,3.7632,3.7643,3.7677,3.769,3.7707,3.7721,3.7761,3.7784,3.779,3.7803,3.783,3.7854,3.7856,3.7865,3.7879,3.7878,3.7818,3.781,3.7802,3.7792,3.7881,3.7881,3.7939,3.794,3.794]}]]